Dades meteomassalio
Diari Summary for Abril 22, 2017 Units:  Metric    English   Both
« Previous Day
Next Day »
Diari Semanal Mensual Anual Personalitzat
  Maxima: Minima: Mijana:
Temperatura: -17.8 °C -17.8 °C -11.3 °C
Rosada: -17.8 °C -20.4 °C -17.3 °C
Humitat: Humidity % 21 % 52 %
Velocitat del vent: 0 km/h 0 km/h 4.8 km/h
Racha vent: 0 km/h - -
Vent:- - East
Pressio: 0 hPa 34520.3 hPa -
Pluja: 0 mm    
Historical Graphs
 
 
Tabular Data for Abril 22, 2017
Time Temperature Dew Point Pressure Wind Wind Speed Wind Gust Humidity Rainfall Rate (Hourly) solar Conditions
-17.8 °C -17.8 °C 0 hPa Calm     Humidity % 0 mm SolarRadiationWatts/m^2 W/m2 Conditions
00:00 -13.4 °C -17.9 °C 34818.2 hPa Calm     56 % 0 mm 0.0 W/m2 CLR
00:05 -13.5 °C -17.9 °C 34818.2 hPa Calm     57 % 0 mm 0.0 W/m2 CLR
00:10 -13.5 °C -17.8 °C 34818.2 hPa Calm     58 % 0 mm 0.0 W/m2 CLR
00:15 -13.5 °C -17.9 °C 34818.2 hPa Calm     57 % 0 mm 0.0 W/m2 CLR
00:20 -13.6 °C -18 °C 34818.2 hPa Calm     57 % 0 mm 0.0 W/m2 CLR
00:25 -13.7 °C -18 °C 34818.2 hPa Calm     58 % 0 mm 0.0 W/m2 CLR
00:30 -13.9 °C -18.2 °C 34818.2 hPa Calm     58 % 0 mm 0.0 W/m2 CLR
00:35 -14.1 °C -18.2 °C 34818.2 hPa Calm     60 % 0 mm 0.0 W/m2 CLR
00:40 -14.3 °C -18.2 °C 34818.2 hPa Calm     61 % 0 mm 0.0 W/m2 CLR
00:45 -14.4 °C -18.3 °C 34818.2 hPa Calm     61 % 0 mm 0.0 W/m2 CLR
00:50 -14.6 °C -18.3 °C 34818.2 hPa Calm     62 % 0 mm 0.0 W/m2 CLR
00:55 -14.7 °C -18.3 °C 34818.2 hPa Calm     63 % 0 mm 0.0 W/m2 CLR
01:00 -14.8 °C -18.3 °C 34818.2 hPa Calm     64 % 0 mm 0.0 W/m2 CLR
01:05 -14.8 °C -18.2 °C 34818.2 hPa Calm     65 % 0 mm 0.0 W/m2 CLR
01:10 -14.9 °C -18.3 °C 34818.2 hPa Calm     65 % 0 mm 0.0 W/m2 CLR
01:15 -14.9 °C -18.3 °C 34818.2 hPa Calm     65 % 0 mm 0.0 W/m2 CLR
01:20 -15.1 °C -18.3 °C 34818.2 hPa Calm     66 % 0 mm 0.0 W/m2 CLR
01:21 -15.1 °C -18.3 °C 34818.2 hPa Calm     66 % 0 mm 0.0 W/m2 CLR
01:26 -15.1 °C -18.4 °C 34818.2 hPa Calm     66 % 0 mm 0.0 W/m2 CLR
01:27 -15.2 °C -18.4 °C 34818.2 hPa Calm     66 % 0 mm 0.0 W/m2 CLR
01:32 -15.2 °C -18.4 °C 34818.2 hPa Calm     67 % 0 mm 0.0 W/m2 CLR
01:37 -15.3 °C -18.4 °C 34818.2 hPa Calm     67 % 0 mm 0.0 W/m2 CLR
01:42 -15.4 °C -18.4 °C 34818.2 hPa Calm     68 % 0 mm 0.0 W/m2 CLR
01:47 -15.4 °C -18.4 °C 34818.2 hPa Calm     68 % 0 mm 0.0 W/m2 CLR
01:52 -15.6 °C -18.4 °C 34818.2 hPa Calm     69 % 0 mm 0.0 W/m2 CLR
01:57 -15.6 °C -18.5 °C 34818.2 hPa Calm     69 % 0 mm 0.0 W/m2 CLR
02:02 -15.7 °C -18.4 °C 34818.2 hPa Calm     70 % 0 mm 0.0 W/m2 CLR
02:07 -15.8 °C -18.6 °C 34818.2 hPa Calm     70 % 0 mm 0.0 W/m2 CLR
02:12 -15.9 °C -18.6 °C 34818.2 hPa Calm     70 % 0 mm 0.0 W/m2 CLR
02:17 -15.9 °C -18.6 °C 34818.2 hPa Calm     71 % 0 mm 0.0 W/m2 CLR
02:22 -16 °C -18.7 °C 34818.2 hPa Calm     71 % 0 mm 0.0 W/m2 CLR
02:27 -16.1 °C -18.6 °C 34808.1 hPa Calm     72 % 0 mm 0.0 W/m2 CLR
02:32 -16.1 °C -18.6 °C 34808.1 hPa Calm     72 % 0 mm 0.0 W/m2 CLR
02:37 -16.2 °C -18.7 °C 34808.1 hPa Calm     72 % 0 mm 0.0 W/m2 CLR
02:42 -16.2 °C -18.7 °C 34808.1 hPa Calm     72 % 0 mm 0.0 W/m2 CLR
02:47 -16.3 °C -18.8 °C 34808.1 hPa Calm     72 % 0 mm 0.0 W/m2 CLR
02:52 -16.3 °C -18.6 °C 34808.1 hPa Calm     74 % 0 mm 0.0 W/m2 CLR
02:57 -16.3 °C -18.5 °C 34797.9 hPa Calm     75 % 0 mm 0.0 W/m2 CLR
03:02 -16.3 °C -18.5 °C 34797.9 hPa Calm     75 % 0 mm 0.0 W/m2 CLR
03:07 -16.3 °C -18.6 °C 34797.9 hPa Calm     74 % 0 mm 0.0 W/m2 CLR
03:12 -16.4 °C -18.8 °C 34797.9 hPa Calm     73 % 0 mm 0.0 W/m2 CLR
03:17 -16.5 °C -18.9 °C 34797.9 hPa Calm     73 % 0 mm 0.0 W/m2 CLR
03:22 -16.5 °C -18.8 °C 34797.9 hPa Calm     74 % 0 mm 0.0 W/m2 CLR
03:27 -16.6 °C -18.8 °C 34797.9 hPa Calm     74 % 0 mm 0.0 W/m2 CLR
03:32 -16.6 °C -18.9 °C 34784.4 hPa Calm     74 % 0 mm 0.0 W/m2 CLR
03:37 -16.6 °C -18.9 °C 34784.4 hPa Calm     74 % 0 mm 0.0 W/m2 CLR
03:42 -16.7 °C -19 °C 34784.4 hPa Calm     74 % 0 mm 0.0 W/m2 CLR
03:47 -16.8 °C -19.1 °C 34784.4 hPa Calm     74 % 0 mm 0.0 W/m2 CLR
03:52 -16.8 °C -19.1 °C 34784.4 hPa Calm     74 % 0 mm 0.0 W/m2 CLR
03:57 -16.8 °C -19.1 °C 34774.2 hPa Calm     75 % 0 mm 0.0 W/m2 CLR
04:02 -16.9 °C -19.1 °C 34774.2 hPa Calm     75 % 0 mm 0.0 W/m2 CLR
04:07 -17 °C -19.1 °C 34784.4 hPa Calm     76 % 0 mm 0.0 W/m2 CLR
04:12 -17.1 °C -19.2 °C 34784.4 hPa Calm     75 % 0 mm 0.0 W/m2 CLR
04:17 -17.1 °C -19.3 °C 34784.4 hPa Calm     75 % 0 mm 0.0 W/m2 CLR
04:22 -17.1 °C -19.3 °C 34784.4 hPa Calm     75 % 0 mm 0.0 W/m2 CLR
04:27 -17.1 °C -19.3 °C 34784.4 hPa Calm     75 % 0 mm 0.0 W/m2 CLR
04:32 -17.2 °C -19.3 °C 34784.4 hPa Calm     76 % 0 mm 0.0 W/m2 CLR
04:37 -17.3 °C -19.3 °C 34784.4 hPa Calm     76 % 0 mm 0.0 W/m2 CLR
04:42 -17.3 °C -19.5 °C 34784.4 hPa Calm     75 % 0 mm 0.0 W/m2 CLR
04:47 -17.3 °C -19.6 °C 34784.4 hPa Calm     75 % 0 mm 0.0 W/m2 CLR
04:52 -17.4 °C -19.7 °C 34784.4 hPa Calm     74 % 0 mm 0.0 W/m2 CLR
04:57 -17.4 °C -19.7 °C 34784.4 hPa Calm     74 % 0 mm 0.0 W/m2 CLR
05:02 -17.4 °C -19.7 °C 34784.4 hPa Calm     74 % 0 mm 0.0 W/m2 CLR
05:07 -17.4 °C -19.7 °C 34784.4 hPa Calm     74 % 0 mm 0.0 W/m2 CLR
05:12 -17.4 °C -19.7 °C 34784.4 hPa Calm     74 % 0 mm 0.0 W/m2 CLR
05:17 -17.4 °C -19.7 °C 34784.4 hPa Calm     74 % 0 mm 0.0 W/m2 CLR
05:22 -17.4 °C -19.8 °C 34774.2 hPa Calm     74 % 0 mm 0.0 W/m2 CLR
05:27 -17.5 °C -19.7 °C 34784.4 hPa Calm     75 % 0 mm 0.0 W/m2 CLR
05:32 -17.6 °C -19.8 °C 34774.2 hPa Calm     75 % 0 mm 0.0 W/m2 CLR
05:37 -17.6 °C -19.7 °C 34774.2 hPa Calm     76 % 0 mm 0.0 W/m2 CLR
05:42 -17.7 °C -19.7 °C 34774.2 hPa Calm     76 % 0 mm 0.0 W/m2 CLR
05:47 -17.7 °C -19.8 °C 34774.2 hPa Calm     76 % 0 mm 0.0 W/m2 CLR
05:52 -17.8 °C -19.9 °C 34774.2 hPa Calm     76 % 0 mm 0.0 W/m2 CLR
05:57 -17.8 °C -19.9 °C 34774.2 hPa Calm     76 % 0 mm 0.0 W/m2 CLR
06:03 -17.8 °C -19.8 °C 34774.2 hPa Calm     77 % 0 mm 0.0 W/m2 CLR
06:08 -17.8 °C -19.9 °C 34774.2 hPa Calm     76 % 0 mm 0.0 W/m2 CLR
06:13 -17.7 °C -19.9 °C 34774.2 hPa Calm     75 % 0 mm 0.0 W/m2 CLR
06:18 -17.7 °C -19.9 °C 34784.4 hPa Calm     75 % 0 mm 0.0 W/m2 CLR
06:23 -17.7 °C -19.9 °C 34784.4 hPa Calm     75 % 0 mm 0.0 W/m2 CLR
06:28 -17.7 °C -19.9 °C 34784.4 hPa Calm     75 % 0 mm 0.0 W/m2 CLR
06:33 -17.7 °C -20.1 °C 34784.4 hPa Calm     74 % 0 mm 0.0 W/m2 CLR
06:38 -17.7 °C -20.1 °C 34784.4 hPa Calm     74 % 0 mm 0.0 W/m2 CLR
06:43 -17.8 °C -20.2 °C 34784.4 hPa Calm     73 % 0 mm 0.0 W/m2 CLR
06:48 -17.8 °C -20.1 °C 34784.4 hPa Calm     74 % 0 mm 0.0 W/m2 CLR
06:53 -17.8 °C -20.1 °C 34784.4 hPa Calm     74 % 0 mm 0.0 W/m2 CLR
06:58 -17.8 °C -20.2 °C 34784.4 hPa Calm     73 % 0 mm 0.0 W/m2 CLR
07:03 -17.8 °C -20.1 °C 34784.4 hPa Calm     74 % 0 mm 0.0 W/m2 OVC
07:08 -17.8 °C -20.2 °C 34797.9 hPa Calm     73 % 0 mm 0.0 W/m2 OVC
07:13 -17.8 °C -20.2 °C 34797.9 hPa Calm     73 % 0 mm 5.0 W/m2 OVC
07:18 -17.7 °C -20.1 °C 34797.9 hPa Calm     73 % 0 mm 9.0 W/m2 BKN
07:23 -17.8 °C -20.2 °C 34797.9 hPa Calm     73 % 0 mm 11.0 W/m2 BKN
07:28 -17.8 °C -20.2 °C 34797.9 hPa Calm     73 % 0 mm 12.0 W/m2 BKN
07:33 -17.8 °C -20.2 °C 34797.9 hPa Calm     73 % 0 mm 16.0 W/m2 BKN
07:38 -17.8 °C -20.1 °C 34797.9 hPa Calm     74 % 0 mm 19.0 W/m2 BKN
07:43 -17.7 °C -19.9 °C 34797.9 hPa Calm     74 % 0 mm 26.0 W/m2 BKN
07:48 -17.6 °C -19.8 °C 34797.9 hPa Calm     74 % 0 mm 37.0 W/m2 BKN
07:53 -17.4 °C -19.7 °C 34797.9 hPa Calm     74 % 0 mm 47.0 W/m2 SCT
07:58 -17.2 °C -19.6 °C 34797.9 hPa Calm     73 % 0 mm 63.0 W/m2 SCT
08:03 -17.1 °C -19.7 °C 34797.9 hPa Calm     71 % 0 mm 77.0 W/m2 FEW
08:08 -17 °C -19.6 °C 34797.9 hPa Calm     71 % 0 mm 93.0 W/m2 CLR
08:13 -16.7 °C -19.4 °C 34797.9 hPa Calm     70 % 0 mm 113.0 W/m2 CLR
08:18 -16.4 °C -19.4 °C 34797.9 hPa Calm     68 % 0 mm 130.0 W/m2 CLR
08:23 -16.2 °C -19.3 °C 34797.9 hPa Calm     67 % 0 mm 149.0 W/m2 CLR
08:28 -16.1 °C -19.3 °C 34797.9 hPa Calm     66 % 0 mm 167.0 W/m2 CLR
08:33 -15.8 °C -19.1 °C 34797.9 hPa Calm     66 % 0 mm 190.0 W/m2 CLR
08:38 -15.5 °C -19.1 °C 34797.9 hPa Calm     63 % 0 mm 209.0 W/m2 CLR
08:43 -15.4 °C -18.9 °C 34797.9 hPa Calm     63 % 0 mm 229.0 W/m2 CLR
08:48 -15.2 °C -18.8 °C 34797.9 hPa Calm     62 % 0 mm 244.0 W/m2 CLR
08:53 -14.9 °C -18.9 °C 34784.4 hPa Calm     60 % 0 mm 262.0 W/m2 CLR
08:58 -14.8 °C -18.9 °C 34784.4 hPa Calm     59 % 0 mm 281.0 W/m2 CLR
09:03 -14.6 °C -19 °C 34784.4 hPa Calm     57 % 0 mm 297.0 W/m2 CLR
09:08 -14.4 °C -19.1 °C 34784.4 hPa Calm     55 % 0 mm 253.0 W/m2 CLR
09:13 -14.2 °C -19 °C 34784.4 hPa Calm     54 % 0 mm 102.0 W/m2 FEW
09:18 -13.9 °C -19.1 °C 34784.4 hPa Calm     52 % 0 mm 350.0 W/m2 FEW
09:23 -13.7 °C -19.1 °C 34774.2 hPa Calm     50 % 0 mm 366.0 W/m2 CLR
09:28 -13.4 °C -19.2 °C 34774.2 hPa Calm     48 % 0 mm 381.0 W/m2 CLR
09:33 -13.2 °C -18.9 °C 34774.2 hPa Calm     48 % 0 mm 397.0 W/m2 CLR
09:38 -12.9 °C -19.1 °C 34774.2 hPa Calm     46 % 0 mm 417.0 W/m2 CLR
09:43 -12.7 °C -19 °C 34774.2 hPa Calm     45 % 0 mm 432.0 W/m2 CLR
09:48 -12.4 °C -18.8 °C 34774.2 hPa Calm     45 % 0 mm 446.0 W/m2 CLR
09:53 -12.2 °C -18.7 °C 34760.7 hPa Calm     44 % 0 mm 462.0 W/m2 CLR
09:58 -12.1 °C -18.6 °C 34760.7 hPa Calm     44 % 0 mm 480.0 W/m2 CLR
10:03 -11.8 °C -18.3 °C 34760.7 hPa Calm     44 % 0 mm 496.0 W/m2 CLR
10:08 -11.5 °C -18.1 °C 34760.7 hPa Calm     44 % 0 mm 513.0 W/m2 CLR
10:13 -11.2 °C -17.9 °C 34760.7 hPa Calm     43 % 0 mm 527.0 W/m2 CLR
10:18 -11 °C -18.2 °C 34760.7 hPa Calm     41 % 0 mm 543.0 W/m2 CLR
10:23 -10.8 °C -18 °C 34760.7 hPa Calm     41 % 0 mm 561.0 W/m2 CLR
10:28 -10.5 °C -17.7 °C 34750.5 hPa Calm     41 % 0 mm 573.0 W/m2 CLR
10:33 -10.3 °C -17.7 °C 34750.5 hPa Calm     40 % 0 mm 589.0 W/m2 CLR
10:38 -10.2 °C -17.6 °C 34750.5 hPa Calm     40 % 0 mm 603.0 W/m2 CLR
10:43 -10 °C -17.7 °C 34750.5 hPa Calm     39 % 0 mm 615.0 W/m2 CLR
10:48 -9.9 °C -17.4 °C 34750.5 hPa Calm     40 % 0 mm 631.0 W/m2 CLR
10:53 -9.8 °C -17.4 °C 34740.4 hPa Calm     39 % 0 mm 643.0 W/m2 CLR
10:58 -9.8 °C -17.6 °C 34750.5 hPa Calm     38 % 0 mm 656.0 W/m2 CLR
11:03 -9.6 °C -17.5 °C 34740.4 hPa East 6 km/h 6 km/h 38 % 0 mm 668.0 W/m2 CLR
11:08 -9.6 °C -17.7 °C 34740.4 hPa Calm     37 % 0 mm 684.0 W/m2 CLR
11:13 -9.5 °C -17.6 °C 34740.4 hPa ENE 3.1 km/h   37 % 0 mm 694.0 W/m2 CLR
11:18 -9.3 °C -17.6 °C 34740.4 hPa ESE 9 km/h 9 km/h 36 % 0 mm 708.0 W/m2 CLR
11:23 -9.1 °C -17.9 °C 34726.8 hPa Calm     34 % 0 mm 721.0 W/m2 CLR
11:28 -8.9 °C -17.7 °C 34740.4 hPa Calm     34 % 0 mm 733.0 W/m2 CLR
11:33 -8.7 °C -18 °C 34726.8 hPa ESE 9 km/h 9 km/h 32 % 0 mm 745.0 W/m2 CLR
11:38 -8.7 °C -18.2 °C 34726.8 hPa NE 9 km/h 9 km/h 31 % 0 mm 752.0 W/m2 CLR
11:43 -8.7 °C -19.2 °C 34726.8 hPa East 9 km/h 9 km/h 27 % 0 mm 766.0 W/m2 CLR
11:48 -8.7 °C -19.9 °C 34726.8 hPa Calm     25 % 0 mm 775.0 W/m2 CLR
11:53 -8.6 °C -20.4 °C 34716.7 hPa ESE 9 km/h 9 km/h 23 % 0 mm 786.0 W/m2 CLR
11:58 -8.5 °C -19.4 °C 34716.7 hPa ESE 9 km/h 9 km/h 26 % 0 mm 796.0 W/m2 CLR
12:03 -8.4 °C -19.3 °C 34716.7 hPa ENE 6 km/h 6 km/h 26 % 0 mm 807.0 W/m2 CLR
12:08 -8.4 °C -19.6 °C 34716.7 hPa East 6 km/h 6 km/h 25 % 0 mm 814.0 W/m2 CLR
12:13 -8.4 °C -19.6 °C 34716.7 hPa Calm     25 % 0 mm 824.0 W/m2 CLR
12:18 -8.1 °C -19.7 °C 34703.1 hPa Calm     24 % 0 mm 833.0 W/m2 CLR
12:23 -7.9 °C -20.1 °C 34703.1 hPa ENE 3.1 km/h   22 % 0 mm 840.0 W/m2 CLR
12:28 -7.8 °C -20.1 °C 34703.1 hPa Calm     22 % 0 mm 847.0 W/m2 CLR
12:33 -7.7 °C -19.6 °C 34693 hPa ENE 5.1 km/h   23 % 0 mm 856.0 W/m2 CLR
12:38 -7.5 °C -19.5 °C 34693 hPa ENE 15 km/h 15 km/h 23 % 0 mm 863.0 W/m2 CLR
12:43 -7.6 °C -18.7 °C 34693 hPa North 10.3 km/h 10.3 km/h 26 % 0 mm 867.0 W/m2 CLR
12:48 -7.6 °C -18.6 °C 34693 hPa North 10.3 km/h 10.3 km/h 26 % 0 mm 870.0 W/m2 CLR
12:53 -7.5 °C -18.6 °C 34682.8 hPa Calm   1.3 km/h 26 % 0 mm 875.0 W/m2 CLR
12:59 -7.4 °C -18.2 °C 34682.8 hPa ENE 15 km/h 15 km/h 27 % 0 mm 882.0 W/m2 CLR
13:04 -7.3 °C -18.1 °C 34682.8 hPa ENE 9 km/h 9 km/h 27 % 0 mm 886.0 W/m2 CLR
13:09 -7.2 °C -18 °C 34682.8 hPa NE 9 km/h 9 km/h 27 % 0 mm 891.0 W/m2 CLR
13:14 -7.1 °C -18.2 °C 34669.3 hPa NNW 6 km/h   26 % 0 mm 893.0 W/m2 CLR
13:19 -6.9 °C -18.1 °C 34669.3 hPa ENE 15 km/h 15 km/h 26 % 0 mm 900.0 W/m2 CLR
13:24 -6.9 °C -18.4 °C 34669.3 hPa North 11.9 km/h 11.9 km/h 25 % 0 mm 905.0 W/m2 CLR
13:29 -7.1 °C -18.4 °C 34669.3 hPa North 9 km/h 9 km/h 25 % 0 mm 905.0 W/m2 CLR
13:34 -6.9 °C -18.4 °C 34659.1 hPa Calm     25 % 0 mm 909.0 W/m2 CLR
13:39 -6.8 °C -19.2 °C 34659.1 hPa NE 15 km/h   22 % 0 mm 912.0 W/m2 CLR
13:44 -6.6 °C -19 °C 34659.1 hPa NE 12.9 km/h 12.9 km/h 22 % 0 mm 912.0 W/m2 CLR
13:49 -6.5 °C -18.7 °C 34659.1 hPa NE 15 km/h 15 km/h 23 % 0 mm 914.0 W/m2 CLR
13:54 -6.4 °C -18.9 °C 34645.6 hPa North 9 km/h 9 km/h 22 % 0 mm 916.0 W/m2 CLR
13:59 -6.4 °C -18.9 °C 34645.6 hPa North 9 km/h 9 km/h 22 % 0 mm 916.0 W/m2 CLR
14:04 -6.4 °C -18.9 °C 34645.6 hPa NE 15.6 km/h 15.6 km/h 22 % 0 mm 916.0 W/m2 CLR
14:09 -6.3 °C -18.8 °C 34645.6 hPa ENE 10.3 km/h 10.3 km/h 22 % 0 mm 912.0 W/m2 CLR
14:14 -6.2 °C -19.1 °C 34645.6 hPa East 18.2 km/h 18.2 km/h 21 % 0 mm 909.0 W/m2 CLR
14:19 -6.2 °C -19.1 °C 34635.4 hPa Calm     21 % 0 mm 909.0 W/m2 CLR
14:24 -6.1 °C -18.7 °C 34635.4 hPa NE 6 km/h 6 km/h 22 % 0 mm 907.0 W/m2 CLR
14:29 -6 °C -18.6 °C 34635.4 hPa East 15 km/h 15 km/h 22 % 0 mm 907.0 W/m2 CLR
14:34 -6.1 °C -18.7 °C 34635.4 hPa ENE 20.9 km/h 20.9 km/h 22 % 0 mm 900.0 W/m2 CLR
14:39 -6.1 °C -18.7 °C 34625.2 hPa Calm     22 % 0 mm 891.0 W/m2 CLR
14:44 -5.9 °C -17.8 °C 34625.2 hPa Calm     24 % 0 mm 888.0 W/m2 CLR
14:49 -5.9 °C -18.4 °C 34625.2 hPa ENE 6 km/h   22 % 0 mm 889.0 W/m2 CLR
14:54 -6.1 °C -18.3 °C 34625.2 hPa East 12.9 km/h 12.9 km/h 23 % 0 mm 882.0 W/m2 CLR
14:59 -6.1 °C -17.6 °C 34625.2 hPa ESE 18.2 km/h 18.2 km/h 25 % 0 mm 879.0 W/m2 CLR
15:04 -5.8 °C -17.7 °C 34611.7 hPa SE 17.9 km/h 17.9 km/h 24 % 0 mm 874.0 W/m2 CLR
15:09 -5.9 °C -17.8 °C 34611.7 hPa East 15 km/h 15 km/h 24 % 0 mm 867.0 W/m2 CLR
15:14 -5.9 °C -17.8 °C 34611.7 hPa NNE 9 km/h 9 km/h 24 % 0 mm 861.0 W/m2 CLR
15:19 -5.7 °C -17.3 °C 34601.5 hPa ENE 9 km/h 9 km/h 25 % 0 mm 861.0 W/m2 CLR
15:24 -5.6 °C -16.9 °C 34601.5 hPa East 20.8 km/h 20.8 km/h 26 % 0 mm 851.0 W/m2 CLR
15:29 -5.7 °C -17.3 °C 34601.5 hPa SE 20.9 km/h 20.9 km/h 25 % 0 mm 842.0 W/m2 CLR
15:34 -5.7 °C -17.3 °C 34601.5 hPa NE 9 km/h   25 % 0 mm 835.0 W/m2 CLR
15:39 -5.7 °C -17.3 °C 34591.4 hPa East 11.9 km/h 11.9 km/h 25 % 0 mm 828.0 W/m2 CLR
15:44 -5.6 °C -16.6 °C 34591.4 hPa ENE 23.8 km/h 23.8 km/h 27 % 0 mm 814.0 W/m2 CLR
15:49 -5.4 °C -16.4 °C 34591.4 hPa NNE 11.9 km/h 11.9 km/h 27 % 0 mm 809.0 W/m2 CLR
15:54 -5.3 °C -16.3 °C 34591.4 hPa East 17.9 km/h 17.9 km/h 27 % 0 mm 800.0 W/m2 CLR
15:59 -5.5 °C -16.6 °C 34577.8 hPa NNW 17.9 km/h 17.9 km/h 27 % 0 mm 793.0 W/m2 CLR
16:04 -5.5 °C -16 °C 34577.8 hPa NNE 15 km/h 15 km/h 29 % 0 mm 784.0 W/m2 CLR
16:09 -5.4 °C -16.2 °C 34577.8 hPa NE 20.9 km/h 20.9 km/h 28 % 0 mm 770.0 W/m2 CLR
16:14 -5.4 °C -15.3 °C 34567.7 hPa ESE 7.7 km/h 7.7 km/h 31 % 0 mm 735.0 W/m2 CLR
16:19 -5.5 °C -14.9 °C 34567.7 hPa NE 31.1 km/h 31.1 km/h 33 % 0 mm 717.0 W/m2 CLR
16:24 -5.5 °C -14.9 °C 34567.7 hPa ENE 10.3 km/h 10.3 km/h 33 % 0 mm 703.0 W/m2 CLR
16:29 -5.5 °C -14.9 °C 34567.7 hPa ENE 29.8 km/h 29.8 km/h 33 % 0 mm 731.0 W/m2 CLR
16:34 -5.4 °C -14.9 °C 34567.7 hPa NNE 28.5 km/h 28.5 km/h 33 % 0 mm 708.0 W/m2 CLR
16:39 -5.5 °C -14.7 °C 34567.7 hPa NNE 32.8 km/h 32.8 km/h 34 % 0 mm 693.0 W/m2 CLR
16:43 -5.4 °C -14.7 °C 34554.1 hPa ENE 9 km/h 11.6 km/h 34 % 0 mm 696.0 W/m2 CLR
16:48 -5.4 °C -14.7 °C 34554.1 hPa NE 15.6 km/h 15.6 km/h 34 % 0 mm 687.0 W/m2 CLR
16:53 -5.4 °C -14.4 °C 34554.1 hPa NE 32.8 km/h 32.8 km/h 35 % 0 mm 663.0 W/m2 CLR
16:58 -5.4 °C -14.4 °C 34554.1 hPa NE 29.8 km/h 29.8 km/h 35 % 0 mm 650.0 W/m2 CLR
17:03 -5.4 °C -14.4 °C 34554.1 hPa Calm     35 % 0 mm 629.0 W/m2 CLR
17:08 -5.3 °C -14.3 °C 34544 hPa East 23.8 km/h 23.8 km/h 35 % 0 mm 629.0 W/m2 CLR
17:13 -5.4 °C -14.2 °C 34544 hPa ENE 12.9 km/h 12.9 km/h 36 % 0 mm 612.0 W/m2 CLR
17:18 -5.4 °C -14.6 °C 34544 hPa NE 11.9 km/h 11.9 km/h 34 % 0 mm 598.0 W/m2 CLR
17:23 -5.4 °C -14.4 °C 34544 hPa NE 26.9 km/h 26.9 km/h 35 % 0 mm 580.0 W/m2 CLR
17:28 -5.4 °C -14.4 °C 34544 hPa East 15 km/h 15 km/h 35 % 0 mm 571.0 W/m2 CLR
17:33 -5.4 °C -14.4 °C 34544 hPa ENE 23.8 km/h 23.8 km/h 35 % 0 mm 554.0 W/m2 CLR
17:38 -5.5 °C -14.3 °C 34544 hPa NE 32.8 km/h 32.8 km/h 36 % 0 mm 543.0 W/m2 CLR
17:43 -5.6 °C -14.3 °C 34544 hPa ENE 15 km/h 15 km/h 36 % 0 mm 527.0 W/m2 CLR
17:48 -5.6 °C -14.1 °C 34533.8 hPa East 9 km/h 9 km/h 37 % 0 mm 506.0 W/m2 CLR
17:53 -5.6 °C -14.4 °C 34533.8 hPa East 6 km/h 6 km/h 36 % 0 mm 489.0 W/m2 CLR
17:58 -5.7 °C -14.4 °C 34533.8 hPa East 15.6 km/h 15.6 km/h 36 % 0 mm 448.0 W/m2 CLR
18:03 -5.9 °C -14.4 °C 34533.8 hPa ESE 11.9 km/h 11.9 km/h 37 % 0 mm 396.0 W/m2 CLR
18:08 -5.9 °C -14.4 °C 34533.8 hPa East 17.9 km/h 17.9 km/h 37 % 0 mm 336.0 W/m2 CLR
18:13 -6 °C -14.1 °C 34533.8 hPa East 9 km/h 9 km/h 39 % 0 mm 322.0 W/m2 CLR
18:18 -6.1 °C -14.4 °C 34533.8 hPa East 15.6 km/h 15.6 km/h 38 % 0 mm 367.0 W/m2 CLR
18:23 -6.2 °C -14.2 °C 34533.8 hPa ESE 23.8 km/h 23.8 km/h 39 % 0 mm 352.0 W/m2 CLR
18:28 -6.3 °C -14.3 °C 34533.8 hPa East 32.8 km/h 32.8 km/h 39 % 0 mm 302.0 W/m2 CLR
18:33 -6.3 °C -14.6 °C 34533.8 hPa East 17.9 km/h 17.9 km/h 38 % 0 mm 237.0 W/m2 CLR
18:38 -6.4 °C -14.4 °C 34533.8 hPa ESE 9 km/h 9 km/h 39 % 0 mm 227.0 W/m2 CLR
18:44 -6.4 °C -14.2 °C 34533.8 hPa ESE 11.9 km/h 11.9 km/h 40 % 0 mm 272.0 W/m2 CLR
18:49 -6.4 °C -14 °C 34533.8 hPa ESE 15 km/h 15 km/h 41 % 0 mm 253.0 W/m2 CLR
18:54 -6.4 °C -14.1 °C 34533.8 hPa ESE 11.9 km/h 11.9 km/h 41 % 0 mm 257.0 W/m2 CLR
18:59 -6.6 °C -14.2 °C 34533.8 hPa ESE 23.8 km/h 23.8 km/h 41 % 0 mm 230.0 W/m2 CLR
19:04 -6.7 °C -14.1 °C 34533.8 hPa ESE 15 km/h 15 km/h 42 % 0 mm 216.0 W/m2 CLR
19:09 -6.8 °C -13.9 °C 34533.8 hPa ESE 20.9 km/h 20.9 km/h 43 % 0 mm 257.0 W/m2 CLR
19:14 -6.9 °C -13.9 °C 34533.8 hPa ESE 17.9 km/h 17.9 km/h 44 % 0 mm 248.0 W/m2 CLR
19:19 -7 °C -13.8 °C 34533.8 hPa ESE 17.9 km/h 17.9 km/h 45 % 0 mm 237.0 W/m2 CLR
19:24 -7.1 °C -13.8 °C 34533.8 hPa East 12.9 km/h 12.9 km/h 45 % 0 mm 200.0 W/m2 CLR
19:29 -7.2 °C -13.9 °C 34533.8 hPa East 20.9 km/h 20.9 km/h 45 % 0 mm 178.0 W/m2 CLR
19:34 -7.3 °C -13.9 °C 34533.8 hPa East 15 km/h 15 km/h 46 % 0 mm 160.0 W/m2 CLR
19:39 -7.3 °C -13.9 °C 34520.3 hPa ESE 11.9 km/h 11.9 km/h 46 % 0 mm 149.0 W/m2 CLR
19:44 -7.4 °C -13.8 °C 34520.3 hPa ESE 9 km/h 9 km/h 47 % 0 mm 98.0 W/m2 CLR
19:49 -7.4 °C -13.8 °C 34520.3 hPa ESE 9 km/h 9 km/h 47 % 0 mm 109.0 W/m2 CLR
19:54 -7.4 °C -13.9 °C 34520.3 hPa East 9 km/h 9 km/h 47 % 0 mm 88.0 W/m2 CLR
19:59 -7.5 °C -13.9 °C 34520.3 hPa ESE 11.9 km/h 11.9 km/h 47 % 0 mm 81.0 W/m2 FEW
20:04 -7.7 °C -13.9 °C 34520.3 hPa East 9 km/h 9 km/h 48 % 0 mm 58.0 W/m2 SCT
20:09 -7.8 °C -14 °C 34520.3 hPa ESE 6 km/h 6 km/h 48 % 0 mm 33.0 W/m2 BKN
20:14 -7.8 °C -14.1 °C 34533.8 hPa ESE 3.1 km/h 3.1 km/h 48 % 0 mm 32.0 W/m2 BKN
20:19 -7.9 °C -13.9 °C 34520.3 hPa ESE 9 km/h 9 km/h 49 % 0 mm 21.0 W/m2 BKN
20:24 -8 °C -14.1 °C 34520.3 hPa ESE 5.1 km/h 5.1 km/h 49 % 0 mm 18.0 W/m2 BKN
20:29 -8.1 °C -14 °C 34533.8 hPa Calm     50 % 0 mm 14.0 W/m2 BKN
20:34 -8.2 °C -14.1 °C 34520.3 hPa Calm     50 % 0 mm 11.0 W/m2 BKN
20:39 -8.3 °C -14 °C 34520.3 hPa Calm     51 % 0 mm 7.0 W/m2 BKN
20:40 -8.3 °C -14 °C 34533.8 hPa Calm     51 % 0 mm 5.0 W/m2 OVC
20:45 -8.4 °C -14.1 °C 34533.8 hPa Calm     51 % 0 mm 0.0 W/m2 OVC
20:50 -8.5 °C -14 °C 34520.3 hPa Calm     52 % 0 mm 0.0 W/m2 OVC
20:55 -8.7 °C -14.1 °C 34520.3 hPa Calm     52 % 0 mm 0.0 W/m2 OVC
21:00 -8.8 °C -14.1 °C 34533.8 hPa Calm     53 % 0 mm 0.0 W/m2 CLR
21:05 -8.9 °C -14.1 °C 34533.8 hPa Calm     54 % 0 mm 0.0 W/m2 CLR
21:10 -8.9 °C -14.1 °C 34533.8 hPa Calm     54 % 0 mm 0.0 W/m2 CLR
21:15 -9.1 °C -14.2 °C 34533.8 hPa Calm     54 % 0 mm 0.0 W/m2 CLR
21:20 -9.2 °C -14.2 °C 34533.8 hPa ENE 9 km/h 9 km/h 55 % 0 mm 0.0 W/m2 CLR
21:25 -9.3 °C -14.3 °C 34533.8 hPa Calm     55 % 0 mm 0.0 W/m2 CLR
21:30 -9.4 °C -14.2 °C 34544 hPa Calm     56 % 0 mm 0.0 W/m2 CLR
21:31 -9.4 °C -14.2 °C 34544 hPa Calm     56 % 0 mm 0.0 W/m2 CLR
21:36 -9.5 °C -14.3 °C 34544 hPa Calm     56 % 0 mm 0.0 W/m2 CLR
21:41 -9.6 °C -14.3 °C 34544 hPa Calm     57 % 0 mm 0.0 W/m2 CLR
21:46 -9.7 °C -14.3 °C 34544 hPa Calm     57 % 0 mm 0.0 W/m2 CLR
21:51 -9.7 °C -14.3 °C 34544 hPa Calm     58 % 0 mm 0.0 W/m2 CLR
21:56 -9.8 °C -14.3 °C 34554.1 hPa Calm     58 % 0 mm 0.0 W/m2 CLR
22:01 -9.9 °C -14.3 °C 34554.1 hPa Calm     59 % 0 mm 0.0 W/m2 CLR
22:06 -9.9 °C -14.3 °C 34554.1 hPa Calm     59 % 0 mm 0.0 W/m2 CLR
22:11 -10.1 °C -14.4 °C 34554.1 hPa Calm     59 % 0 mm 0.0 W/m2 CLR
22:16 -10.1 °C -14.3 °C 34554.1 hPa Calm     60 % 0 mm 0.0 W/m2 CLR
22:21 -10.2 °C -14.4 °C 34554.1 hPa Calm     60 % 0 mm 0.0 W/m2 CLR
22:26 -10.2 °C -14.5 °C 34567.7 hPa Calm     60 % 0 mm 0.0 W/m2 CLR
22:31 -10.3 °C -14.4 °C 34567.7 hPa Calm     61 % 0 mm 0.0 W/m2 CLR
22:36 -10.4 °C -14.5 °C 34567.7 hPa Calm     61 % 0 mm 0.0 W/m2 CLR
22:41 -10.4 °C -14.4 °C 34567.7 hPa Calm     62 % 0 mm 0.0 W/m2 CLR
22:46 -10.5 °C -14.4 °C 34567.7 hPa Calm     62 % 0 mm 0.0 W/m2 CLR
22:51 -10.6 °C -14.5 °C 34567.7 hPa Calm     62 % 0 mm 0.0 W/m2 CLR
22:56 -10.6 °C -14.6 °C 34567.7 hPa Calm     62 % 0 mm 0.0 W/m2 CLR
23:01 -10.7 °C -14.5 °C 34567.7 hPa Calm     63 % 0 mm 0.0 W/m2 CLR
23:06 -10.7 °C -14.6 °C 34567.7 hPa Calm     63 % 0 mm 0.0 W/m2 CLR
23:11 -10.8 °C -14.6 °C 34567.7 hPa Calm     63 % 0 mm 0.0 W/m2 CLR
23:16 -10.9 °C -14.7 °C 34567.7 hPa Calm     63 % 0 mm 0.0 W/m2 CLR
23:21 -11 °C -14.7 °C 34567.7 hPa Calm     64 % 0 mm 0.0 W/m2 CLR
23:26 -11.1 °C -14.8 °C 34567.7 hPa Calm     64 % 0 mm 0.0 W/m2 CLR
23:31 -11.2 °C -14.8 °C 34567.7 hPa Calm     64 % 0 mm 0.0 W/m2 CLR
23:36 -11.3 °C -14.8 °C 34567.7 hPa Calm     65 % 0 mm 0.0 W/m2 CLR
23:41 -11.4 °C -14.9 °C 34567.7 hPa Calm     65 % 0 mm 0.0 W/m2 CLR
23:46 -11.6 °C -15 °C 34567.7 hPa Calm     66 % 0 mm 0.0 W/m2 CLR
23:51 -11.7 °C -15 °C 34567.7 hPa Calm     67 % 0 mm 0.0 W/m2 CLR
23:56 -11.8 °C -14.9 °C 34567.7 hPa Calm     68 % 0 mm 0.0 W/m2 CLR
Lo Temps de Massalio
Compliments of Weather Underground - 1.25 mb